Volver al catálogo

MSU ALTAIR

ActivoCienciaSSO
NORAD 61779·PAYLOAD·🇷🇺 Russia

Lanzado Nov 4, 2024 desde Vostochny Cosmodrome

Loading…

Próximos Pases (próximas 24 horas)

TLE

ActualizadoSource: Space-Track

Época: Sep 14, 2026, 14:02 UTC

1 61779U 24199AW  26257.58475249  .00008523  00000-0  22579-3 0  9997
2 61779  97.2873 126.3752 0011847 353.2513   6.8571 15.38527059150858

Sigue MSU ALTAIR en tiempo real con AllMySat

Download on the App Store